Simultaneous Nadir Overpasses (SNOs) Predictions

Prediction of SNOs between AQUA and METOP-A Satellite Orbit:

Table of predicted SNOs for the next 14.0 days since TLE Epoch: 1/9/2016
Index Date (AQUA) Time (AQUA) Lat,Lon (AQUA) SZA (AQUA ) Date (METOP-A) Time (METOP-A) Lat,Lon (METOP-A) SZA (METOP-A ) Distance(km) Time Diff (sec)
1 01/11/2016 10:58:55 73.85, 9.41 95.75 01/11/2016 10:57:45 73.84, 9.51 95.74 3.31 70
2 01/11/2016 11:48:22 -73.91, 176.92 84.20 01/11/2016 11:48:25 -73.91, 177.02 84.20 3.16 3
3 01/11/2016 12:37:51 74.00, -15.64 95.90 01/11/2016 12:39:03 74.01, -15.40 95.89 7.68 72
4 01/14/2016 06:33:12 73.84, 75.86 95.29 01/14/2016 06:32:08 73.84, 75.94 95.30 2.43 64
5 01/14/2016 07:22:39 -73.90,-116.63 84.66 01/14/2016 07:22:48 -73.92,-116.55 84.65 3.00 9
6 01/14/2016 08:12:12 74.20, 50.33 95.66 01/14/2016 08:13:22 74.22, 51.52 95.63 36.21 70
7 01/17/2016 02:07:28 73.86, 142.26 94.80 01/17/2016 02:06:30 73.84, 142.35 94.79 3.24 58
8 01/17/2016 02:56:55 -73.92, -50.23 85.15 01/17/2016 02:57:10 -73.92, -50.13 85.15 2.88 15
9 01/17/2016 03:46:32 74.42, 116.24 95.40 01/17/2016 03:47:40 74.42, 118.44 95.30 65.78 68
10 01/19/2016 21:41:44 73.84,-151.26 94.22 01/19/2016 21:40:53 73.84,-151.24 94.23 0.67 51
11 01/19/2016 22:31:11 -73.90, 16.26 85.73 01/19/2016 22:31:33 -73.92, 16.27 85.71 2.83 22
12 01/22/2016 17:16:00 73.84, -84.82 93.61 01/22/2016 17:15:16 73.84, -84.85 93.62 0.80 44
13 01/22/2016 18:05:27 -73.89, 82.70 86.35 01/22/2016 18:05:56 -73.91, 82.67 86.33 2.47 29




NCC Satellite Simultaneous Nadir Overpasses (SNOs) Prediction Service
